Current weather by "City, St" or "zip code"  
 
Advertise Here

Current Conditions: Marianna Municipal Airport, FL

Overcast


62.0 F

Last Updated on Jan 27 2021, 12:53 pm CST
Humidity: 86%
Wind Speed: E 6.9 mph
Barometer 29.98 in
Dewpoint: 57.9 F
Visibility: 10.00 mi
Precip: --
Heat Index: NA
Wind Chill: 62 F
Current conditions at:

Marianna Municipal Airport, FL (KMAI)

Lat: 30.83698 Lon: 85.18347

Local Radar Image active severe weather and emergency alerts image image weather storm and storm spotter reports image weather observation monitoring service image
Local
Radar
Active
Alerts
Storm Reports Obs
Monitoring

Sign-up For Email & Text Message Weather Alert Notification Services


Advertise Here

Observation History for Marianna Municipal Airport, FL


Time Wind
(mph)
Vis
(mi)
Weather Precip (in) Temperature (F) Relative
Humidity
Wind
Chill
(F)
Heat
Index
(F)
Pressure
Air Dwpt altimeter
(in)
sea level
(mb)
Rmks
12:53 pm CST E 6.9 10.00 Overcast -- 62.0 57.9 86% 62 NA 29.98 1015.0
11:53 am CST NE 10.4 10.00 Overcast -- 61.0 59.0 93% 60 NA 30.00 1015.7
10:53 am CST NE 11.5 10.00 Overcast -- 62.0 59.0 90% 61 NA 30.02 1016.3
9:53 am CST N 10.4 10.00 Overcast -- 63.0 62.1 97% 62 NA 30.00 1015.7
8:53 am CST NW 6.9 10.00 Light Rain Trace 69.0 68.0 96% NA NA 29.97 1014.9
7:53 am CST N 6.9 1.25 Heavy Rain Fog/Mist 00.01 67.0 66.0 97% NA NA 29.95 1014.0
6:53 am CST SW 6.9 10.00 Overcast -- 72.0 69.1 91% NA NA 29.93 1013.5
5:53 am CST SW 12.7 10.00 Overcast -- 72.0 69.1 91% NA NA 29.92 1013.0
4:53 am CST S 11.5 10.00 Overcast Trace 70.0 69.1 97% NA NA 29.90 1012.5
3:53 am CST S 8.1 7.00 Light Rain -- 68.0 68.0 100% NA NA 29.89 1012.2
2:53 am CST S 3.5 8.00 Light Rain -- 67.0 66.9 100% NA NA 29.92 1012.9
1:53 am CST S 5.8 1.25 Fog/Mist -- 67.0 66.9 100% NA NA 29.92 1012.9
12:53 am CST S 8.1 10.00 Overcast -- 67.0 66.0 97% NA NA 29.92 1013.0
11:53 pm CST S 6.9 10.00 Overcast -- 67.0 66.0 97% NA NA 29.93 1013.2
10:53 pm CST S 4.6 10.00 Overcast -- 67.0 66.0 97% NA NA 29.94 1013.6
9:53 pm CST S 5.8 10.00 Overcast -- 67.0 66.0 97% NA NA 29.94 1013.8
8:53 pm CST S 8.1 10.00 Overcast -- 68.0 66.0 93% NA NA 29.94 1013.7
7:53 pm CST S 8.1 10.00 Overcast -- 68.0 66.0 93% NA NA 29.95 1014.1
6:53 pm CST N 0.0 8.00 Overcast -- 68.0 66.9 96% NA NA 29.93 1013.4
5:53 pm CST N 0.0 10.00 Overcast 00.02 68.0 66.9 96% NA NA 29.93 1013.4
4:53 pm CST N 0.0 10.00 Overcast 00.04 70.0 68.0 93% NA NA 29.91 1012.6
3:53 pm CST SW 4.6 10.00 Overcast 00.05 70.0 69.1 97% NA NA 29.92 1013.0
2:53 pm CST N 0.0 10.00 Light Rain 00.06 69.0 68.0 96% NA NA 29.91 1012.6
1:53 pm CST SW 3.5 3.00 Rain Fog/Mist 00.08 68.0 66.9 96% NA NA 29.91 1012.8

Regional Weather Observation


Tri-County Airport, FL (K1J0)

Overcast
64.0 F

Dothan, Dothan Regional Airport, AL (KDHN)

Overcast
61.0 F

Cairns Army Air Field / Ozark, AL (KOZR)

Mostly Cloudy
66.0 F

Hanchey AHP / Ozark, AL (KHEY)

Overcast
67.0 F

Fort Rucker, Lowe Army Heliport, AL (KLOR)

Overcast
67.0 F

Enterprise Municipal Airport, AL (KEDN)

Overcast
60.0 F